St. Charles, IL

6:20 AM CDT on May 26, 2017 (GMT -0500)
Saint Charles County Smartt

Weather History for KSET - January, 2012

Change the Weather History Date:

Friday, January 27, 2012

  Actual Average (KSTL) Record (KSTL)
Temperature  
Mean Temperature 36 °F -  
Max Temperature 39 °F 39 °F 71 °F (1944)
Min Temperature 32 °F 21 °F -14 °F (1936)
Degree Days  
Heating Degree Days 30    
Moisture  
Dew Point 30 °F    
Average Humidity 80    
Maximum Humidity 92    
Minimum Humidity 70    
Precipitation  
Precipitation 0.14 in - - ()
Sea Level Pressure  
Sea Level Pressure 29.97 in    
Wind  
Wind Speed 6 mph (NW)    
Max Wind Speed 10 mph    
Max Gust Speed -    
Visibility 8 miles    
Events Rain    
Averages and records for this station are not official NWS values.
T = Trace of Precipitation, MM = Missing Value Source: NWS Daily Summary

Daily Weather History Graph

Daily Weather History Graph

Search for Another Location

Airport or City:

Trip Planner

Search our weather history database for the weather conditions in past years. The results will help you decide how hot, cold, wet, or windy it might be!

Date:

Astronomy

Jan. 27, 2012 Rise Set
Actual Time 7:12 AM CST 5:16 PM CST
Civil Twilight 6:44 AM CST 5:45 PM CST
Nautical Twilight 6:11 AM CST 6:17 PM CST
Astronomical Twilight 5:40 AM CST 6:48 PM CST
Moon 9:10 AM CST (1/27) 10:04 PM CST (1/27)
Length of Visible Light 11h 01m
Length of Day
10h 04m
Waxing Crescent, 20% of the Moon is Illuminated
Jan 27
Waxing Crescent
Jan 30
First Quarter
Feb 7
Full
Feb 14
Last Quarter
Feb 21
New

Hourly Weather History & Observations

Time (CST) Temp. Windchill Dew Point Humidity Pressure Visibility Wind Dir Wind Speed Gust Speed Precip Events Conditions
12:16 AM 33.8 °F 29.6 °F 30.2 °F 87% 29.81 in 4.0 mi WNW 4.6 mph - N/A   Overcast
12:54 AM 34.0 °F 31.0 °F 32.0 °F 92% 29.82 in 4.0 mi WSW 3.5 mph - N/A   Overcast
1:22 AM 35.6 °F 29.9 °F 30.2 °F 81% 29.83 in 5.0 mi West 6.9 mph - N/A   Overcast
1:54 AM 34.0 °F 28.0 °F 30.9 °F 89% 29.86 in 6.0 mi NW 6.9 mph - N/A   Overcast
2:54 AM 35.1 °F 29.3 °F 30.9 °F 85% 29.87 in 10.0 mi WNW 6.9 mph - N/A   Overcast
3:54 AM 36.0 °F 28.5 °F 28.9 °F 76% 29.88 in 10.0 mi NNW 10.4 mph - N/A   Overcast
4:54 AM 35.1 °F 27.4 °F 28.9 °F 78% 29.91 in 10.0 mi NW 10.4 mph - N/A   Mostly Cloudy
5:08 AM 35.6 °F 28.0 °F 28.4 °F 75% 29.91 in 10.0 mi NW 10.4 mph - N/A   Scattered Clouds
5:54 AM 34.0 °F 28.0 °F 28.0 °F 79% 29.94 in 10.0 mi WNW 6.9 mph - N/A   Clear
6:54 AM 33.1 °F 27.7 °F 28.0 °F 82% 29.97 in 10.0 mi West 5.8 mph - N/A   Clear
7:54 AM 32.0 °F 25.6 °F 28.0 °F 85% 30.01 in 8.0 mi WSW 6.9 mph - N/A   Clear
8:54 AM 33.1 °F 26.9 °F 28.9 °F 85% 30.02 in 10.0 mi West 6.9 mph - N/A   Clear
9:54 AM 37.0 °F 33.3 °F 28.0 °F 70% 30.03 in 10.0 mi North 4.6 mph - N/A   Clear
10:54 AM 37.0 °F - 28.0 °F 70% 30.05 in 10.0 mi Calm Calm - N/A   Scattered Clouds
11:54 AM 37.9 °F 32.7 °F 28.9 °F 70% 30.00 in 10.0 mi East 6.9 mph - N/A   Overcast
1:54 PM 37.9 °F 35.5 °F 28.9 °F 70% 29.97 in 10.0 mi SSE 3.5 mph - N/A   Overcast
2:54 PM 39.0 °F 36.8 °F 30.0 °F 70% 30.01 in 10.0 mi WSW 3.5 mph - N/A   Overcast
3:54 PM 39.0 °F 36.8 °F 30.0 °F 70% 30.01 in 10.0 mi North 3.5 mph - N/A   Overcast
4:54 PM 37.9 °F 34.4 °F 30.0 °F 73% 30.01 in 10.0 mi NE 4.6 mph - N/A   Overcast
5:54 PM 37.0 °F 32.4 °F 30.9 °F 79% 30.01 in 10.0 mi ENE 5.8 mph - N/A   Overcast
6:54 PM 37.0 °F 32.4 °F 30.0 °F 76% 30.01 in 10.0 mi NNE 5.8 mph - N/A   Mostly Cloudy
7:54 PM 36.0 °F 32.1 °F 30.9 °F 82% 30.02 in 10.0 mi ENE 4.6 mph - N/A   Overcast
8:54 PM 36.0 °F 31.1 °F 30.9 °F 82% 30.04 in 10.0 mi West 5.8 mph - N/A   Overcast
9:40 PM 35.6 °F 30.7 °F 30.2 °F 81% 30.02 in 6.0 mi NNE 5.8 mph - 0.02 in Rain Light Rain
9:54 PM 36.0 °F 33.3 °F 32.0 °F 86% 30.02 in 5.0 mi NE 3.5 mph - 0.04 in Rain Light Rain
10:54 PM 36.0 °F 33.3 °F 33.1 °F 89% 30.01 in 4.0 mi NNE 3.5 mph - 0.05 in Rain Light Rain
11:54 PM 36.0 °F 29.0 °F 33.1 °F 89% 30.02 in 4.0 mi NNW 9.2 mph - 0.05 in Rain Light Rain